Regional Weather Roundup
Issued by NWS

Home | Current Version | Previous Version | Graphics & Text | Print | Product List | Glossary On
Versions: 1 2 3 4 5 6 7 8 9 10 11 12 13 14 15 16 17 18 19 20 21 22 23 24 25 26 27 28 29 30 31 32 33 34 35 36 37 38 39 40 41 42 43 44 45 46 47 48 49 50
000
ASUS44 KMEG 271610
RWRTN
TENNESSEE HOURLY STATE WEATHER ROUNDUP
NATIONAL WEATHER SERVICE MEMPHIS TN
1100 AM CDT WED JUL 27 2016

TNZ002-004-019-021-049-052-054-088>092-271700-
WEST TENNESSEE

CITY           SKY/WX    TMP DP  RH WIND       PRES   REMARKS
MEMPHIS INTL   CLOUDY    88  75  65 SE8       29.98R HX  97
NWS MEMPHIS      N/A     87 N/A N/A MISG        N/A
JACKSON        CLOUDY    85  77  77 VRB3      30.01R HX  95
DYERSBURG      MOSUNNY   84  75  74 MISG      29.99R HX  92
UNION CITY     SUNNY     88  77  70 CALM      29.98S HX 100
PARIS          MOSUNNY   84  75  74 S5        30.01S HX  92
LEXINGTON      PTSUNNY   82  73  74 S5        30.01R
$$

TNZ008-025-027-028-033-062-065-066-271700-
NORTH MIDDLE TENNESSEE

CITY           SKY/WX    TMP DP  RH WIND       PRES   REMARKS
NASHVILLE      MOSUNNY   87  73  62 SW3       30.02F HX  94
CLARKSVILLE    SUNNY     86  75  69 S3        30.00S HX  95
SMYRNA         MOSUNNY   90  74  59 SE5       30.02F HX  99
COOKEVILLE     MOSUNNY   90  77  66 CALM      30.04F HX 102
CROSSVILLE     MOSUNNY   84  72  67 CALM      30.11S
$$

TNZ061-075-076-078-094-096-097-271700-
SOUTH MIDDLE TENNESSEE

CITY           SKY/WX    TMP DP  RH WIND       PRES   REMARKS
FAYETTEVILLE   CLOUDY    81  72  74 SE7       30.07R
TULLAHOMA      PTSUNNY   84  72  65 VRB7      30.07S
WINCHESTER     CLOUDY    84  72  65 S7        30.07R
MCMINNVILLE    MOSUNNY   88  75  66 VRB3      30.05F HX  97
COLUMBIA       PTSUNNY   88  81  79 S10       30.03R HX 105
SHELBYVILLE    MOSUNNY   88  77  70 S8        30.05R HX 100
$$

TNZ017-018-042-046-047-271700-
NORTHEAST TENNESSEE

CITY           SKY/WX    TMP DP  RH WIND       PRES   REMARKS
TRI CITIES     MOSUNNY   88  73  61 W10       30.08F HX  95
ELIZABETHTON   PTSUNNY   86  72  62 CALM      30.08S HX  92
$$

TNZ012-013-036-069-073-074-271700-
CENTRAL EAST TENNESSEE

CITY           SKY/WX    TMP DP  RH WIND       PRES   REMARKS
KNOXVILLE      MOSUNNY   87  72  60 W8        30.05S HX  93
OAK RIDGE      MOSUNNY   88  72  58 CALM      30.06S HX  94
GATLINBURG       N/A     90  72  55 NW8       30.04S HX  96
MORRISTOWN     SUNNY     88  72  58 VRB5G12   30.06F HX  94
$$

TNZ083-085-099-271700-
SOUTHEAST TENNESSEE

CITY           SKY/WX    TMP DP  RH WIND       PRES   REMARKS
CHATTANOOGA    PTSUNNY   89  71  55 S8        30.05R HX  95
$$

SKY/WX REPORTED AS FAIR MEANS FEW OR NO CLOUDS BELOW
12 THOUSAND FEET.





USA.gov is the U.S. government's official web portal to all federal, state and local government web resources and services.